Mitchell, SD

3:23 AM CDT on September 20, 2019 (GMT -0500)
Mitchell Municipal

Weather History for KMHE - July, 2019

Change the Weather History Date:

Sunday, July 14, 2019

  Actual Average Record
Temperature  
Mean Temperature 85 °F 75 °F  
Max Temperature 96 °F 87 °F 106 °F (1980)
Min Temperature 73 °F 63 °F 42 °F (1930)
Degree Days  
Heating Degree Days 0 0  
Month to date heating degree days 0 0  
Since 1 June heating degree days 16 35  
Since 1 July heating degree days 0 0  
Cooling Degree Days 20 10  
Month to date cooling degree days 175 138  
Year to date cooling degree days 386 348  
Since 1 June cooling degree days 367 308  
Growing Degree Days 34 (Base 50)    
Moisture  
Dew Point 70 °F    
Average Humidity 67    
Maximum Humidity 87    
Minimum Humidity 46    
Precipitation  
Precipitation 0.00 in 0.10 in 4.35 in (1929)
Month to date precipitation 2.91 1.52  
Year to date precipitation 17.37 12.38  
Snow  
Snow 0.00 in - 0.00 in ()
Month to date snowfall 0.0  
Since 1 June snowfall 0.0  
Since 1 July snowfall 0.0  
Snow Depth 0.00 in    
Sea Level Pressure  
Sea Level Pressure 29.90 in    
Wind  
Wind Speed 10 mph (SSE)    
Max Wind Speed 18 mph    
Max Gust Speed 26 mph    
Visibility 10 miles    
Events      
T = Trace of Precipitation, MM = Missing Value Source: NWS Daily Summary

Daily Weather History Graph

Daily Weather History Graph

Search for Another Location

Airport or City:

Astronomy

Jul. 14, 2019 Rise Set
Actual Time 6:03 AM CDT 9:12 PM CDT
Civil Twilight 5:28 AM CDT 9:47 PM CDT
Nautical Twilight 4:43 AM CDT 10:32 PM CDT
Astronomical Twilight 3:48 AM CDT 11:26 PM CDT
Moon 7:36 PM CDT (7/14) 4:05 AM CDT (7/14)
Length of Visible Light 16h 19m
Length of Day
15h 09m
Waxing Gibbous, 95% of the Moon is Illuminated
Jul 14
Waxing Gibbous
Jul 16
Full
Jul 24
Last Quarter
Jul 31
New
Aug 7
First Quarter

Hourly Weather History & Observations

Time (CDT) Temp. Heat Index Dew Point Humidity Pressure Visibility Wind Dir Wind Speed Gust Speed Precip Events Conditions
12:53 AM 75.9 °F - 70.0 °F 82% 29.95 in 10.0 mi SSE 6.9 mph - N/A   Clear
1:53 AM 75.0 °F - 71.1 °F 87% 29.96 in 10.0 mi SSE 5.8 mph - N/A   Clear
2:53 AM 75.0 °F - 71.1 °F 87% 29.95 in 10.0 mi SSE 8.1 mph - N/A   Clear
3:53 AM 75.0 °F - 70.0 °F 84% 29.95 in 10.0 mi SSE 6.9 mph - N/A   Clear
4:53 AM 73.9 °F - 70.0 °F 87% 29.94 in 10.0 mi SSE 9.2 mph - N/A   Clear
5:53 AM 73.9 °F - 69.1 °F 85% 29.95 in 10.0 mi SSE 8.1 mph - N/A   Partly Cloudy
6:53 AM 73.9 °F - 69.1 °F 85% 29.94 in 10.0 mi SSE 9.2 mph - N/A   Clear
7:53 AM 77.0 °F - 69.1 °F 76% 29.95 in 10.0 mi South 9.2 mph - N/A   Clear
8:53 AM 81.0 °F 84.4 °F 70.0 °F 69% 29.94 in 10.0 mi SSE 8.1 mph - N/A   Clear
9:53 AM 84.0 °F 88.4 °F 70.0 °F 63% 29.95 in 10.0 mi South 8.1 mph - N/A   Clear
10:53 AM 87.1 °F 92.0 °F 70.0 °F 57% 29.93 in 10.0 mi SSE 8.1 mph - N/A   Clear
11:53 AM 91.0 °F 98.2 °F 72.0 °F 53% 29.93 in 10.0 mi South 11.5 mph - N/A   Clear
12:53 PM 93.0 °F 97.9 °F 69.1 °F 45% 29.91 in 10.0 mi South 11.5 mph - 0.00 in   Clear
1:53 PM 95.0 °F 102.5 °F 71.1 °F 46% 29.88 in 10.0 mi South 12.7 mph 23.0 mph N/A   Clear
2:53 PM 93.0 °F 99.0 °F 70.0 °F 47% 29.86 in 10.0 mi South 11.5 mph - N/A   Clear
3:53 PM 93.0 °F 99.0 °F 70.0 °F 47% 29.85 in 10.0 mi South 11.5 mph 24.2 mph N/A   Clear
4:53 PM 93.9 °F 99.1 °F 69.1 °F 44% 29.85 in 10.0 mi South 16.1 mph 23.0 mph N/A   Clear
5:53 PM 91.9 °F 96.9 °F 69.1 °F 47% 29.85 in 10.0 mi South 11.5 mph - N/A   Clear
6:53 PM 93.0 °F 99.0 °F 70.0 °F 47% 29.84 in 10.0 mi South 10.4 mph - N/A   Clear
7:53 PM 90.0 °F 94.5 °F 69.1 °F 50% 29.84 in 10.0 mi South 11.5 mph - N/A   Clear
8:53 PM 86.0 °F 91.5 °F 71.1 °F 61% 29.83 in 10.0 mi SSE 10.4 mph - N/A   Clear
9:53 PM 82.9 °F 87.5 °F 71.1 °F 67% 29.83 in 10.0 mi SSE 9.2 mph - N/A   Clear
10:53 PM 82.0 °F 86.3 °F 71.1 °F 69% 29.85 in 10.0 mi South 10.4 mph - N/A   Clear
11:53 PM 81.0 °F 84.9 °F 71.1 °F 72% 29.83 in 10.0 mi South 10.4 mph - N/A   Clear